User: anonymous   Login
Location: Kott?ru
(16.6209°N, 80.6208°E)
Time: 02:12:23
(UTC+00:00)
Language:

Cosmos 1238 Rocket - Orbit

View from above orbital plane
View from above orbital plane
View from above satellite
View from above satellite

Ground track
Ground track

The orbit data is extracted from the following two-line orbital elements,

1 12139U 81003B   22330.38841673  .00006665  00000-0  29803-3 0  9996
2 12139  82.9470 277.7299 0428369 238.1435 117.7413 14.65400122136581
Epoch (UTC): 26 November 2022 09:19:19
Eccentricity: 0.0428369
inclination: 82.9470°
perigee height: 373 km
apogee height: 978 km
right ascension of ascending node: 277.7299°
argument of perigee: 238.1435°
revolutions per day: 14.65400122
mean anomaly at epoch: 117.7413°
orbit number at epoch: 13658

The dashed part of the orbit path shows where the satellite is in the earth's shadow,  

DLR